Flag for Poland Weather past 2 weeks in Jastrzębie Zdrój, Poland

Now
91 °F

Scattered clouds.


Feels Like: 89 °F
Forecast: 68 / 87 °F
Wind: N/A

Location: Ostrava / Mosnov

Current Time: Aug 4, 2015 at 6:21:40 PM

Latest Report: Aug 4, 2015 at 5:00 PM


Visibility: 22 mi

Pressure: 29.89 "Hg

Humidity: 31%

Dew point: 56 °F

Location of Jastrzębie ZdrójLocation

Historic Weather in Jastrzębie Zdrój — Graph

°F

Jastrzębie Zdrój temperature yesterday

Maximum temperature yesterday: 83 °F (at 1:00 PM)
Minimum temperature yesterday: 55 °F (at 6:00 AM)
Average temperature yesterday: 70 °F

Past Weeks' High & Low Weather Summary

 TemperatureHumidityPressure
High95 °F (Jul 22, 4:00 PM)99% (Jul 25, 3:00 AM)30.15 "Hg (Jul 25, 3:00 AM)
Low48 °F (Aug 1, 6:00 AM)24% (Jul 22, 4:00 PM)29.65 "Hg (Jul 25, 1:00 PM)
Average70 °F61%29.92 "Hg
* Reported Jul 20 5:00 PM — Aug 4 5:00 PM, Jastrzębie Zdrój, Weather by CustomWeather, © 2015

Note: Actual official high and low records may vary slightly from our data, if they occured in-between our weather recording intervals... More about our weather records

Advertising

Jastrzębie Zdrój weather history for previous 24 hours

 ConditionsComfort  
Time TempWeatherWind HumidityBarometerVisibility
5:00 PM
Tue, Aug 4
91 °FScattered clouds.N/A31%29.89 "Hg22 mi
4:00 PM88 °FScattered clouds.N/A32%29.90 "Hg22 mi
3:00 PM90 °FScattered clouds.N/A31%29.90 "Hg19 mi
2:00 PM88 °FPassing clouds.3 mph34%29.93 "Hg19 mi
1:00 PM87 °FPassing clouds.N/A36%29.95 "Hg16 mi
12:00 PM83 °FPassing clouds.N/A41%29.98 "Hg16 mi
11:00 AM82 °FPassing clouds.N/A46%29.99 "Hg12 mi
10:00 AM77 °FSunny.N/A54%30.01 "Hg12 mi
9:00 AM72 °FSunny.N/A63%30.03 "Hg12 mi
8:00 AM67 °FPassing clouds.N/A75%30.04 "Hg12 mi
7:00 AM62 °FPassing clouds.N/A87%30.05 "Hg9 mi
6:00 AM59 °FPassing clouds.2 mph93%30.05 "Hg9 mi
5:00 AM59 °FPassing clouds.1 mph95%30.05 "Hg19 mi
4:00 AM58 °FClear.2 mph95%30.06 "Hg19 mi
3:00 AM59 °FClear.N/A91%30.07 "Hg19 mi
2:00 AM63 °FClear.N/A88%30.07 "Hg19 mi
1:00 AM63 °FClear.No wind87%30.08 "Hg19 mi
12:00 AM64 °FClear.1 mph84%30.08 "Hg19 mi
10:00 PM
Mon, Aug 3
71 °FPassing clouds.N/A68%30.06 "Hg19 mi
9:00 PM71 °FPassing clouds.1 mph63%30.06 "Hg19 mi
8:00 PM78 °FPassing clouds.2 mph50%30.04 "Hg19 mi
7:00 PM82 °FScattered clouds.N/A44%30.03 "Hg19 mi
6:00 PM81 °FPartly sunny.3 mph48%30.04 "Hg19 mi
Weather by CustomWeather, © 2015

See weather overviewHow to use our weather pages